User: anonymous   Login
Location: Tel Aviv
(32.0670°N, 34.7670°E)
Time: 07:02:54
(UTC+03:00)
Language:

STARS - Orbit

View from above orbital plane
View from above orbital plane
View from above satellite
View from above satellite

Ground track
Ground track

The orbit data is extracted from the following two-line orbital elements,

1 33498U 09002G   23087.98853851  .00004652  00000-0  60010-3 0  9992
2 33498  98.1423 349.5519 0011785  57.5959 302.6391 14.81462585763952
Epoch (UTC): 28 March 2023 23:43:29
Eccentricity: 0.0011785
inclination: 98.1423°
perigee height: 616 km
apogee height: 633 km
right ascension of ascending node: 349.5519°
argument of perigee: 57.5959°
revolutions per day: 14.81462585
mean anomaly at epoch: 302.6391°
orbit number at epoch: 76395

The dashed part of the orbit path shows where the satellite is in the earth's shadow,  

DLR